Probability
0 0 0 0 0 1 8 26 44 48 35 15 3 0 0 0 0 0 0 0 0 0 0 0 0 0 0 0 0 0 0 0 0 0 0 0 0 0 0 0 0 0 0
0 0 0 0 2 7 21 41 56 57 45 23 6 0 0 0 0 0 0 0 0 0 0 0 0 0 0 0 0 0 0 0 0 0 0 0 0 0 0 0 0 0 0
0 1 2 4 10 26 50 69 73 65 50 28 8 1 0 0 0 0 0 0 0 0 0 0 0 0 0 0 0 0 0 0 0 0 0 0 0 0 0 0 0 0 0
3 6 10 18 34 59 79 88 85 70 47 22 6 1 0 0 0 0 0 0 0 0 0 0 0 0 0 0 0 0 0 0 0 0 0 0 0 0 0 0 0 0 0
9 15 25 39 60 78 87 87 82 67 41 17 4 0 0 0 0 0 0 0 0 0 0 0 0 0 0 0 0 0 0 0 0 0 0 0 0 0 0 0 0 0 0
11 18 30 45 58 66 67 65 59 46 28 13 3 0 0 0 0 0 0 0 0 0 0 0 0 0 0 0 0 0 0 0 0 0 0 0 0 0 0 0 0 0 0
6 9 17 26 33 36 36 34 30 22 13 7 2 0 0 0 0 0 0 0 0 0 0 0 0 0 0 0 0 0 0 0 0 0 0 0 0 0 0 0 0 0 0
1 2 4 7 10 12 12 12 11 8 5 2 1 0 0 0 0 0 0 0 0 0 0 0 0 0 0 0 0 0 0 0 0 0 0 0 0 0 0 0 0 0 0
0 0 0 0 2 3 4 4 4 4 2 1 1 0 0 0 0 0 0 0 0 0 0 0 0 0 0 0 0 0 0 0 0 0 0 0 0 0 0 0 0 0 0
0 0 0 0 1 3 4 2 1 1 1 1 0 0 0 0 0 0 0 0 0 0 0 0 0 0 0 0 0 0 0 0 0 0 0 0 0 0 0 0 0 0 0
0 0 0 0 1 2 3 1 0 0 0 0 0 0 0 0 0 0 0 0 0 0 0 0 0 0 0 0 0 0 0 0 0 0 0 0 0 0 0 0 0 0 0
0 0 0 0 0 1 1 0 0 0 0 0 0 0 0 0 0 0 0 0 0 0 0 0 0 0 0 0 0 0 0 0 0 0 0 0 0 0 0 0 0 0 0
0 0 0 0 0 0 0 0 0 0 0 0 0 0 0 0 0 0 0 0 0 0 0 0 0 0 0 0 0 0 0 0 0 0 0 0 0 0 0 0 0 0 0
0 0 0 0 0 0 0 0 0 0 0 0 0 0 0 0 0 0 0 0 0 0 0 0 0 0 0 0 0 0 0 0 0 0 0 0 0 0 0 0 0 0 0
0 0 0 0 0 0 0 0 0 0 0 0 0 0 0 0 0 0 0 0 0 0 0 0 0 0 0 0 0 0 0 0 0 0 0 0 0 0 0 0 0 0 0
0 0 0 0 0 0 0 0 0 0 0 0 0 0 0 0 0 0 0 0 0 0 0 0 0 0 0 0 0 0 0 0 0 0 0 0 0 0 0 0 0 0 0
0 0 0 0 0 0 0 0 0 0 0 0 0 0 0 0 0 0 0 0 0 0 0 0 0 0 0 0 0 0 0 0 0 0 0 0 0 0 0 0 0 0 0
0 0 0 0 0 0 0 0 0 0 0 0 0 0 0 0 0 0 0 0 0 0 0 0 0 0 0 0 0 0 0 0 0 0 0 0 0 0 0 0 0 0 0
0 0 0 0 0 0 0 0 0 0 0 0 0 0 0 0 0 0 0 0 0 0 0 0 0 0 0 0 0 0 0 0 0 0 0 0 0 0 0 0 0 0 0
0 0 0 0 0 0 0 0 0 0 0 0 0 0 0 0 0 0 0 0 0 0 0 0 0 0 0 0 0 0 0 0 0 0 0 0 0 0 0 0 0 0 0
0 0 0 0 0 0 0 0 0 0 0 0 0 0 0 0 0 0 0 0 0 0 0 0 0 0 0 0 0 0 0 0 0 0 0 0 0 0 0 0 0 0 0
0 0 0 0 0 0 0 0 0 0 0 0 0 0 0 0 0 0 0 0 0 0 0 0 0 0 0 0 0 0 0 0 0 0 0 0 0 0 0 0 0 0 0
0 0 0 0 0 0 0 0 0 0 0 0 0 0 0 0 0 0 0 0 0 0 0 0 0 0 0 0 0 0 0 0 0 0 0 0 0 0 0 0 0 0 0
0 0 0 0 0 0 0 0 0 0 0 0 0 0 0 0 0 0 0 0 0 0 0 0 0 0 0 0 0 0 0 0 0 0 0 0 0 0 0 0 0 0 0
0 0 0 0 0 0 0 0 0 0 0 0 0 0 0 0 0 0 0 0 0 0 0 0 0 0 0 0 0 0 0 0 0 0 0 0 0 0 0 0 0 0 0
0 0 0 0 0 0 0 0 0 0 0 0 0 0 0 0 0 0 0 0 0 0 0 0 0 0 0 0 0 0 0 0 0 0 0 0 0 0 0 0 0 0 0
Wind_Speed
9 9 12 14 11 10 10 12 11 10 9 6 5 4 3 3 3 3 4 5 6 6 5 4 4 5 5 5 6 4 3 2 2 3 2 2 2 1 0 1 1 1 1
10 8 8 12 15 15 13 12 12 10 10 6 4 2 3 2 2 2 3 5 5 5 5 5 5 5 4 5 5 4 3 2 3 3 2 1 3 2 1 1 1 2 1
11 10 8 9 12 13 13 10 10 8 6 5 4 3 3 2 2 2 2 3 5 5 5 6 5 5 6 6 6 6 6 4 3 2 4 4 4 2 2 1 1 2 2
12 9 6 4 5 6 8 10 10 10 7 5 3 2 3 3 4 3 2 3 5 5 5 6 6 5 5 5 6 6 4 5 4 2 1 2 3 2 1 2 1 2 3
13 9 6 5 6 8 10 11 12 13 10 5 2 2 2 2 1 2 3 3 3 4 5 5 5 5 5 6 6 7 6 5 5 4 3 2 1 2 2 2 2 2 3
13 10 9 9 10 10 10 10 12 12 8 3 2 4 4 4 3 3 3 3 2 3 4 5 4 4 3 4 5 6 7 6 5 4 4 4 4 4 3 2 2 3 3
12 11 10 8 8 8 9 10 13 10 5 1 3 5 6 5 5 4 3 3 2 2 3 3 3 3 3 3 3 4 5 6 6 6 5 4 4 4 4 4 2 2 2
11 8 8 7 6 7 9 10 11 7 3 1 3 3 4 3 2 2 2 3 2 2 3 4 4 3 4 3 3 3 4 4 6 6 6 4 4 3 4 5 4 2 2
12 8 7 8 8 8 9 8 6 3 1 3 4 3 3 3 2 2 2 2 2 2 3 4 3 3 3 3 3 3 3 3 4 5 5 4 4 4 4 4 4 4 3
12 9 7 7 7 7 7 5 2 2 3 3 3 2 2 2 3 3 3 3 3 3 4 4 3 3 2 3 3 2 3 3 3 3 5 5 4 4 4 4 4 5 5
10 7 5 4 5 5 4 2 2 3 3 3 2 1 1 3 3 3 3 3 3 4 4 4 4 4 4 3 3 2 2 2 3 3 4 5 5 4 4 5 5 5 5
7 4 3 3 3 2 1 2 2 2 2 2 2 2 2 2 3 2 2 3 4 4 5 4 4 4 4 4 4 3 3 3 3 3 3 4 4 6 5 5 7 6 7
8 4 2 3 3 3 3 4 3 2 2 2 2 2 1 1 2 2 2 3 3 4 4 4 5 5 5 5 5 4 4 3 3 3 4 4 4 5 5 6 6 6 6
11 8 6 4 4 4 4 2 2 2 3 2 2 2 2 1 2 2 2 2 3 3 4 4 5 5 5 5 5 5 5 4 4 4 4 4 4 5 5 5 6 5 6
13 12 10 8 7 7 6 5 3 2 1 1 1 1 1 1 1 2 2 2 3 3 4 4 4 4 4 5 6 6 6 5 4 3 3 3 4 6 4 3 3 4 4
13 12 11 11 11 11 10 9 9 7 6 6 6 5 4 3 2 2 2 2 2 2 2 4 4 4 4 6 8 7 6 6 5 4 3 3 4 4 5 6 6 5 4
10 11 10 9 9 9 8 9 8 8 8 8 8 8 7 7 6 5 5 5 4 3 2 2 2 4 5 8 8 8 6 6 5 5 4 3 3 4 3 5 6 6 8
9 8 8 7 7 6 7 7 7 7 8 8 8 8 8 7 7 7 7 6 5 5 5 5 4 3 4 7 7 6 4 4 5 5 5 4 4 4 4 4 4 4 5
5 5 5 5 6 7 6 6 7 7 7 7 7 7 7 7 7 7 7 6 5 6 5 5 6 5 6 9 6 2 1 2 3 3 4 5 4 6 6 5 5 6 6
4 4 4 5 5 6 5 6 6 6 6 6 5 5 6 6 6 6 6 5 5 5 5 6 7 7 7 12 11 5 2 1 0 1 2 5 5 5 5 6 6 6 5
3 2 3 3 4 4 4 5 5 5 4 4 4 5 5 5 5 5 5 5 5 6 6 6 6 7 9 12 14 10 3 1 0 1 1 2 4 5 5 6 6 7 4
4 3 3 4 4 3 3 4 4 4 3 3 4 4 5 5 4 5 5 5 6 6 7 6 6 5 6 9 11 13 9 5 1 2 2 2 5 6 6 4 6 7 4
4 3 3 4 4 3 1 2 3 2 1 2 3 3 4 4 4 4 5 4 5 5 5 5 6 6 5 6 12 12 11 9 3 2 4 6 6 5 3 3 4 5 4
5 4 4 4 5 4 3 3 3 1 1 1 2 2 3 3 3 3 3 3 4 4 5 5 5 5 5 5 6 5 5 5 4 3 3 3 2 1 2 2 2 3 3
5 4 4 5 6 5 5 4 3 2 2 1 2 2 3 3 3 2 2 2 2 2 3 3 4 5 6 7 11 7 4 4 3 3 1 0 1 1 2 2 3 3 3
6 6 6 6 7 6 6 5 3 3 3 2 1 1 2 2 2 2 2 1 1 4 5 5 5 4 6 11 11 10 10 9 5 1 1 1 1 1 2 2 2 3 3
Wind_Direction
282 258 226 213 207 203 192 189 184 174 165 159 163 169 189 189 194 198 191 188 185 179 174 175 174 172 179 181 168 148 152 140 132 101 44 358 18 51 23 19 321 322 13
301 290 250 219 206 202 195 187 185 175 173 172 155 147 143 157 170 170 183 187 183 178 176 173 174 175 170 164 162 151 150 158 157 136 121 354 333 315 332 354 243 257 298
307 299 278 236 214 201 189 178 169 155 149 128 108 83 78 79 118 177 185 183 177 175 171 174 172 176 171 176 176 170 163 169 181 171 152 161 214 276 308 292 259 241 250
323 308 294 257 213 184 150 136 130 114 98 97 122 163 182 191 204 195 183 166 172 174 175 173 176 176 174 178 184 180 172 162 173 186 186 153 151 151 288 305 287 249 236
345 352 18 59 78 92 102 109 109 101 93 93 135 211 222 200 177 175 178 169 165 170 169 169 174 178 182 184 180 181 187 185 181 174 164 153 130 128 156 262 289 292 254
3 19 38 54 64 74 86 95 95 89 90 98 175 209 205 190 180 193 186 168 148 158 172 173 179 183 186 191 191 192 195 200 197 193 185 172 166 173 167 196 244 260 270
10 24 35 46 58 70 81 84 85 81 78 108 222 215 205 191 190 192 187 162 156 169 178 166 173 180 196 201 194 196 204 201 204 206 211 208 192 157 156 162 191 243 277
3 21 39 45 55 67 81 83 85 84 72 276 254 223 196 178 181 185 177 178 178 172 164 171 176 183 189 196 195 204 211 205 211 215 210 208 209 182 166 162 161 198 265
349 2 29 49 54 63 71 74 79 89 181 226 229 207 192 172 167 173 183 185 181 173 165 165 164 171 182 194 193 213 220 210 214 217 212 207 205 202 192 172 168 178 222
341 352 12 36 52 59 67 63 55 262 238 223 208 198 199 178 169 172 188 195 190 174 160 156 154 160 177 193 199 220 224 214 215 208 211 212 205 206 203 199 193 195 203
324 339 356 13 47 53 48 27 277 247 223 202 179 147 143 161 171 178 184 184 181 179 181 178 171 175 183 188 194 221 220 218 222 216 215 222 210 210 208 204 203 206 203
326 339 337 340 24 25 338 292 276 253 211 176 142 130 136 154 164 175 187 188 189 189 191 186 187 189 186 186 192 211 210 212 225 228 228 234 223 218 212 211 215 213 208
8 23 9 339 329 301 271 253 228 189 180 157 142 148 172 195 205 211 216 208 205 201 199 196 203 205 195 190 196 201 208 216 225 225 227 234 227 227 220 218 218 215 213
27 32 31 15 350 337 319 281 230 190 178 179 167 173 201 225 242 237 228 226 225 221 219 218 220 219 207 195 194 195 202 211 225 231 234 236 228 232 228 225 222 213 209
27 31 31 27 23 23 25 35 44 39 48 66 29 354 347 347 296 279 278 261 241 233 224 226 228 226 220 211 197 194 197 200 212 227 238 243 240 239 232 224 216 207 207
17 20 23 24 26 28 31 38 41 42 51 52 39 24 22 24 6 343 344 336 311 279 240 236 235 235 239 239 219 197 192 192 196 205 217 235 245 249 243 242 227 205 198
6 11 14 16 18 21 26 32 29 35 47 48 41 35 34 33 25 24 29 20 9 3 341 314 283 271 275 277 266 226 192 192 194 195 196 206 217 227 233 251 250 233 225
358 2 4 9 9 14 23 28 29 34 40 40 35 29 30 30 25 29 28 19 16 19 13 6 354 332 323 315 294 275 214 197 194 193 195 201 217 218 214 222 237 240 238
343 349 355 360 5 10 11 30 27 25 31 28 26 22 25 29 27 26 20 15 20 23 20 18 16 10 354 356 344 317 170 179 190 191 196 201 218 236 221 210 231 245 248
339 352 353 359 4 354 2 30 21 22 17 10 14 17 25 31 27 21 17 14 20 21 21 25 22 20 11 10 14 38 91 113 135 180 209 221 231 248 235 205 214 237 246
323 355 3 347 330 334 6 21 12 5 350 2 20 23 23 31 31 30 25 22 25 28 24 19 15 19 17 14 19 27 35 37 329 276 260 257 263 275 272 220 207 225 222
329 345 347 328 318 328 3 4 345 327 343 19 30 24 19 23 27 34 31 30 29 31 21 12 9 8 8 11 11 17 17 14 357 318 309 295 296 294 291 247 222 223 196
324 326 330 321 320 320 308 316 306 315 338 12 18 12 16 20 21 30 29 30 31 30 18 11 7 360 358 2 11 12 10 11 6 329 316 311 303 300 291 258 214 172 151
327 324 328 321 312 311 294 265 281 279 266 313 336 356 8 6 12 24 28 34 30 24 15 8 2 357 355 358 358 356 355 355 354 336 326 340 24 65 85 78 99 119 138
322 326 317 299 290 295 291 275 254 200 220 269 312 347 358 354 356 18 25 21 21 4 354 350 349 350 350 344 343 345 340 329 309 312 308 329 83 87 81 78 84 91 99
321 326 321 303 292 288 281 275 240 198 202 239 279 342 354 350 358 9 12 355 310 328 339 343 346 331 329 332 344 350 352 347 335 338 14 20 67 94 99 100 89 83 88